Change the Weather History Date:

Wednesday, June 5, 2013

  Actual Average Record
Temperature  
Mean Temperature 86 °F -  
Max Temperature 106 °F 99 °F 112 °F (1957)
Min Temperature 66 °F 68 °F 52 °F (1999)
Cooling Degree Days 20    
Growing Degree Days 36 (Base 50)    
Moisture  
Dew Point 39 °F    
Average Humidity 22    
Maximum Humidity 47    
Minimum Humidity 6    
Precipitation  
Precipitation 0.00 in - - ()
Sea Level Pressure  
Sea Level Pressure 29.74 in    
Wind  
Wind Speed 4 mph (WSW)    
Max Wind Speed 8 mph    
Max Gust Speed -    
Visibility 10 miles    
Events      
Averages and records for this station are not official NWS values.
T = Trace of Precipitation, MM = Missing Value Source: NWS Daily Summary

Daily Weather History Graph

Daily Weather History Graph

Search for Another Location

Airport or City:

Trip Planner

Search our weather history database for the weather conditions in past years. The results will help you decide how hot, cold, wet, or windy it might be!

Date:

Astronomy

Jun. 05, 2013 Rise Set
Actual Time 5:34 AM PDT 7:47 PM PDT
Civil Twilight 5:05 AM PDT 8:16 PM PDT
Nautical Twilight 4:31 AM PDT 8:51 PM PDT
Astronomical Twilight 3:53 AM PDT 9:28 PM PDT
Moon 3:33 AM PDT (6/5) 5:24 PM PDT (6/5)
Length of Visible Light 15h 10m
Length of Day
14h 13m
Waning Crescent, 7% of the Moon is Illuminated
Jun 5
Waning Crescent
Jun 8
New
Jun 16
First Quarter
Jun 23
Full
Jun 29
Last Quarter

Hourly Weather History & Observations

Time (PDT) Temp. Heat Index Dew Point Humidity Pressure Visibility Wind Dir Wind Speed Gust Speed Precip Events Conditions
12:53 AM 78.1 °F - 37.0 °F 23% 29.74 in 10.0 mi WSW 6.9 mph - N/A   Clear
1:53 AM 73.0 °F - 39.9 °F 30% 29.73 in 10.0 mi WSW 5.8 mph - N/A   Clear
2:53 AM 73.9 °F - 37.9 °F 27% 29.74 in 10.0 mi Calm Calm - N/A   Clear
3:53 AM 70.0 °F - 39.9 °F 33% 29.74 in 10.0 mi Calm Calm - N/A   Clear
4:53 AM 68.0 °F - 43.0 °F 40% 29.75 in 10.0 mi Calm Calm - N/A   Clear
5:53 AM 66.9 °F - 46.0 °F 47% 29.77 in 10.0 mi WSW 4.6 mph - N/A   Clear
6:53 AM 73.9 °F - 46.9 °F 38% 29.78 in 10.0 mi SSW 4.6 mph - N/A   Clear
7:53 AM 82.0 °F 81.2 °F 53.1 °F 37% 29.79 in 10.0 mi Calm Calm - N/A   Clear
8:53 AM 84.9 °F - 45.0 °F 25% 29.81 in 10.0 mi Calm Calm - N/A   Clear
9:53 AM 90.0 °F - 39.0 °F 17% 29.81 in 10.0 mi Variable 3.5 mph - N/A   Clear
10:53 AM 93.0 °F - 39.0 °F 15% 29.80 in 10.0 mi Calm Calm - N/A   Clear
11:53 AM 100.0 °F - 36.0 °F 11% 29.79 in 10.0 mi Variable 3.5 mph - N/A   Clear
12:53 PM 100.0 °F - 42.1 °F 14% 29.77 in 10.0 mi Calm Calm - N/A   Clear
1:53 PM 102.9 °F - 23.0 °F 6% 29.75 in 10.0 mi Variable 5.8 mph - N/A   Clear
2:53 PM 102.9 °F - 36.0 °F 10% 29.73 in 10.0 mi Variable 3.5 mph - N/A   Clear
3:53 PM 105.1 °F - 35.1 °F 9% 29.70 in 10.0 mi SE 6.9 mph - N/A   Clear
4:53 PM 105.1 °F - 28.9 °F 7% 29.67 in 10.0 mi WSW 3.5 mph - N/A   Clear
5:53 PM 105.1 °F - 26.1 °F 6% 29.66 in 10.0 mi WNW 3.5 mph - N/A   Clear
6:53 PM 104.0 °F - 33.1 °F 9% 29.66 in 10.0 mi ENE 5.8 mph - N/A   Clear
7:53 PM 100.0 °F - 33.1 °F 10% 29.66 in 10.0 mi Calm Calm - N/A   Clear
8:53 PM 86.0 °F - 50.0 °F 29% 29.69 in 10.0 mi West 8.1 mph - N/A   Clear
9:53 PM 82.9 °F - 46.0 °F 27% 29.71 in 10.0 mi WSW 5.8 mph - N/A   Clear
10:53 PM 82.9 °F - 45.0 °F 26% 29.71 in 10.0 mi WSW 8.1 mph - N/A   Clear
11:53 PM 80.1 °F - 44.1 °F 28% 29.71 in 10.0 mi West 8.1 mph - N/A   Clear